Orbital Elements at Epoch 2459000.5 (2020-May-31.0) TDB
Reference: JPL 17 (heliocentric ecliptic J2000)
Element | Value | Uncertainty (1-sigma) | Units |
e | .0964492107288541 | 3.7937e-08 | |
a | 2.707080491626799 | 1.3485e-08 | au |
q | 2.445984714829915 | 1.0468e-07 | au |
i | 4.166210699009143 | 4.1805e-06 | deg |
node | 55.3702617849779 | 5.9845e-05 | deg |
peri | 314.5408088811229 | 6.6433e-05 | deg |
M | 332.259101910605 | 2.5773e-05 | deg |
tp | 2459125.862659462238 (2020-Oct-03.36265946) | 0.00011631 | TDB |
period | 1626.859997862086 4.45 | 1.2156e-05 3.328e-08 | d yr |
n | .2212851754134274 | 1.6535e-09 | deg/d |
Q | 2.968176268423682 | 1.4786e-08 | au |
|
| | Orbit Determination Parameters
Additional Information
|